Hourly Data Report for June 24, 2006

TORONTO CITY
ONTARIO

43°40'00.000" N
79°24'00.000" W
112.50 m
6158355
71508
XTO

Download Data

Hourly Data (June 2006)
Hourly Data Report for June 24, 2006
TIME
LST
Temp Definition
°C
Dew Point Definition
°C
Rel Hum Definition
%
Precip. Amount Definition
mm

Wind Dir Definition
10's deg

Wind Spd Definition
km/h
Visibility Definition
km
Stn Press Definition
kPa
Hmdx Definition


Wind Chill Definition


Weather Definition


00:00 18.6 11.8 65   LegendMM LegendMM   100.48     LegendNANA
01:00 18.2 11.0 63   LegendMM LegendMM   100.48     LegendNANA
02:00 17.5 10.7 64   LegendMM LegendMM   100.45     LegendNANA
03:00 17.3 10.1 63   LegendMM LegendMM   100.43     LegendNANA
04:00 16.4 9.7 65   LegendMM LegendMM   100.44     LegendNANA
05:00 16.8 10.1 65   LegendMM LegendMM   100.49     LegendNANA
06:00 17.0 10.8 67   LegendMM LegendMM   100.57     LegendNANA
07:00 17.6 12.1 70   LegendMM LegendMM   100.61     LegendNANA
08:00 19.1 13.6 70   LegendMM LegendMM   100.63     LegendNANA
09:00 20.5 14.3 68   LegendMM LegendMM   100.65     LegendNANA
10:00 21.1 14.8 67   LegendMM LegendMM   100.65 25   LegendNANA
11:00 22.4 15.7 66   LegendMM LegendMM   100.65 27   LegendNANA
12:00 23.7 15.7 61   LegendMM LegendMM   100.65 28   LegendNANA
13:00 23.1 15.6 63   LegendMM LegendMM   100.60 27   LegendNANA
14:00 23.9 15.9 61   LegendMM LegendMM   100.58 28   LegendNANA
15:00 23.8 15.7 60   LegendMM LegendMM   100.55 28   LegendNANA
16:00 23.8 15.3 59   LegendMM LegendMM   100.52 28   LegendNANA
17:00 22.9 15.4 63   LegendMM LegendMM   100.48 27   LegendNANA
18:00 22.7 15.7 65   LegendMM LegendMM   100.45 27   LegendNANA
19:00 21.9 15.5 67   LegendMM LegendMM   100.48 26   LegendNANA
20:00 20.9 15.6 72   LegendMM LegendMM   100.49 25   LegendNANA
21:00 20.3 14.0 67   LegendMM LegendMM   100.59     LegendNANA
22:00 20.4 13.6 65   LegendMM LegendMM   100.61     LegendNANA
23:00 20.1 13.3 65   LegendMM LegendMM   100.63     LegendNANA

Notes on Data Quality.

Legend

  • E = Estimated
  • M = Missing
  • NA = Not Available*
  • [empty] = Indicates an unobserved value
Date modified: